FW2417 Weather Reports


Display with metric or nautical units.
time (UTC)temp
F
wind
direction
speed
MPH
gust
MPH
rain 1hr
in
rain 24hr
in
rain mn
in
humidity
%
barometer
mb
20260503203049 63 206 0.0 7.0 0.00 0.00 0.00 69 1015.6
20260503201552 64 246 0.0 5.0 0.00 0.00 0.00 66 1015.4
20260503200035 64 243 0.0 5.0 0.00 0.00 0.00 66 1015.1
20260503194545 65 267 0.0 5.0 0.00 0.00 0.00 67 1014.9
20260503193031 66 228 0.0 10.0 0.00 0.00 0.00 66 1014.7
20260503191502 67 294 0.0 4.0 0.00 0.00 0.00 62 1014.5
20260503190110 68 242 1.0 6.0 0.00 0.00 0.00 59 1014.2
20260503184612 69 214 1.0 13.0 0.00 0.00 0.00 57 1014.1
20260503183106 70 267 1.0 9.0 0.00 0.00 0.00 57 1014.0
20260503181609 71 239 0.0 10.0 0.00 0.00 0.00 53 1014.1
20260503180059 72 260 3.0 15.0 0.00 0.00 0.00 52 1014.0
20260503174618 72 18 1.0 13.0 0.00 0.00 0.00 51 1013.9
20260503173053 73 299 1.0 12.0 0.00 0.00 0.00 49 1014.0
20260503171548 73 246 2.0 12.0 0.00 0.00 0.00 48 1014.0
20260503160114 76 252 1.0 7.0 0.00 0.00 0.00 44 1013.7
20260503120128 74 308 2.0 9.0 0.00 0.00 0.00 53 1015.5
20260503090117 68 208 2.0 11.0 0.00 0.00 0.00 73 1016.2
20260503081600 65 214 2.0 10.0 0.00 0.00 0.00 81 1016.4
20260503071544 64 243 0.0 4.0 0.00 0.00 0.00 85 1016.3
20260503060119 62 221 0.0 1.0 0.00 0.00 0.00 90 1015.8
20260503054614 61 243 0.0 1.0 0.00 0.00 0.00 90 1015.6
20260503053106 61 233 0.0 1.0 0.00 0.00 0.00 90 1015.5
20260503051603 62 233 0.0 1.0 0.00 0.00 0.00 89 1015.6
20260503050100 62 195 0.0 1.0 0.00 0.00 0.00 88 1015.6
20260503044602 62 193 0.0 2.0 0.00 0.00 0.00 87 1015.7
20260503043043 63 232 0.0 2.0 0.00 0.00 0.00 87 1015.8
20260503041600 63 218 0.0 1.0 0.00 0.00 0.00 87 1015.9
20260503040026 63 159 1.0 4.0 0.00 0.00 0.00 87 1015.8
20260503034538 63 249 0.0 1.0 0.00 0.00 0.00 86 1016.0
20260503033003 62 210 0.0 2.0 0.00 0.00 0.00 85 1016.0
20260503031503 62 225 0.0 5.0 0.00 0.00 0.00 85 1016.0
20260503030116 62 201 0.0 2.0 0.00 0.00 0.00 85 1016.1
20260503024502 63 195 0.0 2.0 0.00 0.00 0.00 85 1016.1
20260503023116 63 231 0.0 1.0 0.00 0.00 0.00 86 1016.2
20260503021512 62 221 0.0 2.0 0.00 0.00 0.00 86 1016.2
20260503020056 63 233 0.0 1.0 0.00 0.00 0.00 85 1016.3
20260503014557 63 229 0.0 1.0 0.00 0.00 0.00 85 1016.4
20260503013046 63 250 0.0 2.0 0.00 0.00 0.00 83 1016.6
20260503011553 63 244 0.0 2.0 0.00 0.00 0.00 82 1016.9
20260503010013 63 224 0.0 3.0 0.00 0.00 0.00 81 1017.1
20260503004534 63 252 0.0 2.0 0.00 0.00 0.00 80 1017.2
20260503003010 63 226 0.0 2.0 0.00 0.00 0.00 79 1017.2
20260503001536 63 235 0.0 3.0 0.00 0.00 0.00 79 1017.3
20260503000036 63 246 0.0 3.0 0.00 0.00 0.00 79 1017.4
20260502234546 63 255 0.0 3.0 0.00 0.00 0.00 78 1017.4
20260502233009 63 270 0.0 6.0 0.00 0.00 0.00 79 1017.4
20260502231509 63 250 0.0 3.0 0.00 0.00 0.00 79 1017.5
20260502230122 63 246 0.0 4.0 0.00 0.00 0.00 80 1017.5
20260502224506 64 248 0.0 4.0 0.00 0.00 0.00 80 1017.4
20260502223118 64 255 0.0 3.0 0.00 0.00 0.00 80 1017.3
20260502221615 64 239 0.0 3.0 0.00 0.00 0.00 79 1017.3
20260502220150 64 232 0.0 2.0 0.00 0.00 0.00 80 1017.5
20260502214552 65 243 0.0 2.0 0.00 0.00 0.00 79 1017.5
20260502213056 65 252 0.0 2.0 0.00 0.00 0.00 79 1017.4
20260502211553 65 248 0.0 3.0 0.00 0.00 0.00 79 1017.2
20260502210057 66 246 0.0 4.0 0.00 0.00 0.00 78 1017.1
20260502204604 66 243 0.0 6.0 0.00 0.00 0.00 78 1017.1